Regional Weather Roundup
Issued by NWS

Home | Current Version | Previous Version | Graphics & Text | Print | Product List | Glossary On
Versions: 1 2 3 4 5 6 7 8 9 10 11 12 13 14 15 16 17 18 19 20 21 22 23 24 25 26 27 28 29 30 31 32 33 34 35 36 37 38 39 40 41 42 43 44 45 46 47 48 49 50
757
ASUS43 KOAX 051802
RWRNE

WEATHER ROUNDUP FOR NEBRASKA
NATIONAL WEATHER SERVICE OMAHA NE
1200 PM CST FRI FEB 05 2016

NOTES: SATELLITE DATA IS BEING USED TO AUGMENT CLOUD COVER ABOVE
       12000 FEET.
       "FAIR" INDICATES FEW OR NO CLOUDS BELOW 12,000 FEET WITH NO
       SIGNIFICANT WEATHER AND/OR OBSTRUCTIONS TO VISIBILITY.

  * THESE STATIONS DO NOT REPORT WEATHER SUCH AS RAIN...SNOW OR FOG.

NEZ001>004-019>022-054>056-051900-
NEBRASKA PANHANDLE

CITY           SKY/WX    TMP DP  RH WIND       PRES   REMARKS
SCOTTSBLUFF    SUNNY     30  16  56 NW15      30.30F WCI  19
6HR MIN TEMP:  14; 6HR MAX TEMP:  30;

ALLIANCE       SUNNY     31  23  72 NW16      30.24S WCI  20
6HR MIN TEMP:  13; 6HR MAX TEMP:  31;

CHADRON        CLOUDY    34  23  64 W23G29    30.27R WCI  22
6HR MIN TEMP:  25; 6HR MAX TEMP:  34;

SIDNEY         PTSUNNY   28  17  63 NW18      30.29R WCI  15
6HR MIN TEMP:  17; 6HR MAX TEMP:  28;

$$

NEZ057>060-069>072-079>082-051900-
SOUTHWEST NEBRASKA

CITY           SKY/WX    TMP DP  RH WIND       PRES   REMARKS
NORTH PLATTE   PTSUNNY   33  24  69 NW14      30.25S WCI  23
6HR MIN TEMP:  26; 6HR MAX TEMP:  34;

IMPERIAL       SUNNY     33  20  58 NW20      30.28S WCI  21
6HR MIN TEMP:  25; 6HR MAX TEMP:  33;

MCCOOK         SUNNY     35  23  61 NW16G25   30.28S WCI  25
6HR MIN TEMP:  26; 6HR MAX TEMP:  35; 6HR PCP: TRACE;

$$

NEZ005>010-023>029-035>040-094-051900-
NORTH CENTRAL NEBRASKA

CITY           SKY/WX    TMP DP  RH WIND       PRES   REMARKS
VALENTINE      CLOUDY    35  27  72 NW20G25   30.20F WCI  24
6HR MIN TEMP:  26; 6HR MAX TEMP:  35;

AINSWORTH      PTSUNNY   37  28  71 NW23      30.20S WCI  25
BROKEN BOW     CLOUDY    36  26  67 NW13      30.21S WCI  27
6HR MIN TEMP:  29; 6HR MAX TEMP:  36; 6HR PCP: TRACE;

ORD            CLOUDY    36  27  69 NW7       30.20F WCI  30
6HR MIN TEMP:  22; 6HR MAX TEMP:  37; 6HR PCP: TRACE;

$$

NEZ041-046>049-061>064-073>077-083>087-051900-
SOUTH CENTRAL NEBRASKA

CITY           SKY/WX    TMP DP  RH WIND       PRES   REMARKS
GRAND ISLAND   MOSUNNY   33  28  81 SW15      30.24F WCI  23
6HR MIN TEMP:  23; 6HR MAX TEMP:  33; 6HR PCP:  0.04;

HASTINGS       CLOUDY    31  26  82 SW12G17   30.24F WCI  22
6HR MIN TEMP:  22; 6HR MAX TEMP:  31; 6HR PCP:  0.02;

KEARNEY *      MOSUNNY   36 -13  12 W12       30.23F WCI  27
$$

NEZ011>018-030>034-042>045-051900-
NORTHEAST NEBRASKA

CITY           SKY/WX    TMP DP  RH WIND       PRES   REMARKS
NORFOLK        CLOUDY    28  25  88 S12       30.22F WCI  18
6HR MIN TEMP:  23; 6HR MAX TEMP:  28; 6HR PCP: TRACE;

COLUMBUS *     CLOUDY    28  19  69 S13       30.26F WCI  18
FREMONT        LGT SNOW  27  23  85 S10       30.29F WCI  17
TEKAMAH        LGT SNOW  27  23  85 S15       30.31F FOG     WCI  15
6HR MIN TEMP:  10; 6HR MAX TEMP:  27; 6HR PCP: TRACE;

$$

NEZ050>053-065>068-078-088>093-051900-
SOUTHEAST NEBRASKA

CITY           SKY/WX    TMP DP  RH WIND       PRES   REMARKS
LINCOLN        LGT SNOW  28  25  88 S10       30.32F VSB 1   WCI  19
6HR MIN TEMP:  15; 6HR MAX TEMP:  28; 6HR PCP:  0.04;

OMAHA EPPLEY   LGT SNOW  28  24  85 S12       30.33F VSB 1   WCI  18
6HR MIN TEMP:  19; 6HR MAX TEMP:  28; 6HR PCP: TRACE;

BEATRICE       CLOUDY    30  23  77 S14       30.31F WCI  19
FALLS CITY     CLOUDY    31  23  72 S10       30.36F WCI  22
6HR MIN TEMP:  22; 6HR MAX TEMP:  31;

NEBRASKA CITY  CLOUDY    30  23  75 S14       30.33F WCI  19
$$

NEZ044-045-051>053-067-051900-
OMAHA AREA

CITY           SKY/WX    TMP DP  RH WIND       PRES   REMARKS
OMAHA EPPLEY   LGT SNOW  28  24  85 S12       30.33F VSB 1   WCI  18
6HR MIN TEMP:  19; 6HR MAX TEMP:  28; 6HR PCP: TRACE;

FREMONT        LGT SNOW  27  23  85 S10       30.29F WCI  17
OFFUTT AFB     LGT SNOW  29  24  81 S10       30.32F FOG     WCI  20
WAHOO          LGT SNOW  28  26  89 S8        30.30F WCI  20
$$




USA.gov is the U.S. government's official web portal to all federal, state and local government web resources and services.